Weather in Artemovskiy

Russia / Irkutsk Oblast     58°12′18″N   114°38′39″E
temp.,
°C
wind,
m/s
gust,
m/s
humid.,
%
clouds,
%
prec.,
mm/h
press.,
hPa
HPBL,
m
21 april, wed
wed2123:00−14sse119891 0.0 10189
02:00−14nne119656 0.0 101910
05:00−14ne1198100 0.1 10209
08:00−9wnw2484100 0.1 1019356
11:00−8wnw6669100 0.0 10201197
14:00−7wnw6773100 0.2 10201267
17:00−8wnw677173 0.1 10221171
20:00−16nnw22861 0.1 10289
22 april, thu
thu2223:00−18n11895 0.0 10309
02:00−18nnw119251 0.0 10329
05:00−19nnw21965 0.0 10349
08:00−10w258423 0.0 1033316
11:00−7nw5565100 0.1 10341378
14:00−6wnw4461100 0.2 10341370
17:00−6wnw456594 0.2 10361085
20:00−14wnw11865 0.2 10409
23 april, fri
fri2323:00−15wnw1195100 0.0 104310
02:00−15ssw229889 0.1 104314
05:00−16ssw22100100 0.1 104417
08:00−9sw51292100 0.3 1041708
11:00−5wsw111887100 0.2 10381480
14:00−3w121791100 1.2 10371439
17:00−3w111694100 0.8 10371326
20:00−4w81595100 1.5 1038757
24 april, sat
sat2423:00−4w51296100 0.7 1040642
02:00−5w61295100 1.5 1040615
05:00−8w3897100 0.3 1041154
08:00−5w71089100 0.6 1041905
11:00−3w7989100 0.3 1040945
14:00−2w7884100 0.6 10381048
17:00−2w578498 0.2 1036823
20:00−8wsw119343 0.3 103710
25 april, sun
sun2523:00−11nnw119634 0.0 103610
02:00−11n119713 0.0 103510
05:00−12nne219735 0.0 103310
08:00−5ene008753 0.0 1029155
11:00−3ssw118777 0.0 1026351
14:00−2ene009184 0.0 1023414
17:00−1ne1186100 0.0 1021374
20:00−6ne2292100 0.0 102111